Seoul E AB, South Korea

7:46 PM KST on March 24, 2017 (GMT +0900)
Seoul Air Base

Weather History for RKSM - February, 2014

Change the Weather History Date:

Wednesday, February 19, 2014

  Actual Average Record
Temperature  
Mean Temperature 33 °F -  
Max Temperature 42 °F 45 °F 55 °F (1998)
Min Temperature 24 °F 26 °F 8 °F (2012)
Degree Days  
Heating Degree Days 32    
Moisture  
Dew Point 19 °F    
Average Humidity 56    
Maximum Humidity 80    
Minimum Humidity 36    
Precipitation  
Precipitation 0.00 in - - ()
Sea Level Pressure  
Sea Level Pressure 30.32 in    
Wind  
Wind Speed 2 mph ()    
Max Wind Speed 6 mph    
Max Gust Speed -    
Visibility 6.2 miles    
Events      
Averages and records for this station are not official NWS values.
T = Trace of Precipitation, MM = Missing Value Source: Averaged Metar Reports

Daily Weather History Graph

Daily Weather History Graph

Search for Another Location

Airport or City:

Trip Planner

Search our weather history database for the weather conditions in past years. The results will help you decide how hot, cold, wet, or windy it might be!

Date:

Astronomy

Feb. 19, 2014 Rise Set
Actual Time 7:16 AM KST 6:14 PM KST
Civil Twilight 6:50 AM KST 6:41 PM KST
Nautical Twilight 6:19 AM KST 7:11 PM KST
Astronomical Twilight 5:49 AM KST 7:42 PM KST
Moon 10:25 PM KST (2/19) 9:07 AM KST (2/19)
Length of Visible Light 11h 51m
Length of Day
10h 58m
Waning Gibbous, 84% of the Moon is Illuminated
Feb 19
Waning Gibbous
Feb 23
Last Quarter
Mar 1
New
Mar 8
First Quarter
Mar 17
Full

Hourly Weather History & Observations

Time (KST) Temp. Windchill Dew Point Humidity Pressure Visibility Wind Dir Wind Speed Gust Speed Precip Events Conditions
12:00 AM 30.2 °F - 21.2 °F 69% 30.34 in 6.2 mi South 1.2 mph - N/A   Clear
1:00 AM 28.4 °F - 19.4 °F 69% 30.34 in 6.2 mi WNW 1.2 mph - N/A   Partly Cloudy
2:00 AM 28.4 °F - 19.4 °F 69% 30.35 in 6.2 mi South 2.3 mph - N/A   Partly Cloudy
3:00 AM 28.4 °F 23.3 °F 19.4 °F 69% 30.35 in 6.2 mi South 4.6 mph - N/A   Clear
4:00 AM 28.4 °F 24.6 °F 19.4 °F 69% 30.35 in 6.2 mi South 3.5 mph - N/A   Partly Cloudy
5:00 AM 26.6 °F - 19.4 °F 74% 30.35 in 6.2 mi South 1.2 mph - N/A   Clear
6:00 AM 24.8 °F - 19.4 °F 80% 30.34 in 6.2 mi South 1.2 mph - N/A   Clear
7:00 AM 24.8 °F - 19.4 °F 80% 30.35 in 6.2 mi South 2.3 mph - N/A   Scattered Clouds
8:00 AM 26.6 °F - 19.4 °F 74% 30.37 in 6.2 mi South 2.3 mph - N/A   Scattered Clouds
9:00 AM 33.8 °F 30.8 °F 21.2 °F 60% 30.38 in 6.2 mi SSW 3.5 mph - N/A   Partly Cloudy
10:00 AM 35.6 °F 30.7 °F 19.4 °F 52% 30.37 in 6.2 mi SSE 5.8 mph - N/A   Partly Cloudy
11:00 AM 37.4 °F 33.8 °F 19.4 °F 48% 30.36 in 6.2 mi SSE 4.6 mph - N/A   Scattered Clouds
12:00 PM 39.2 °F 37.0 °F 19.4 °F 45% 30.35 in 6.2 mi ESE 3.5 mph - N/A   Scattered Clouds
1:00 PM 41.0 °F 39.0 °F 17.6 °F 39% 30.31 in 6.2 mi SW 3.5 mph - N/A   Mostly Cloudy
2:00 PM 42.8 °F - 17.6 °F 36% 30.28 in 6.2 mi South 2.3 mph - N/A   Mostly Cloudy
3:00 PM 42.8 °F - 17.6 °F 36% 30.27 in 6.2 mi North 1.2 mph - N/A   Mostly Cloudy
4:00 PM 42.8 °F 41.1 °F 17.6 °F 36% 30.26 in 6.2 mi NW 3.5 mph - N/A   Mostly Cloudy
5:00 PM 42.8 °F - 17.6 °F 36% 30.26 in 6.2 mi NNE 2.3 mph - N/A   Mostly Cloudy
6:00 PM 41.0 °F - 15.8 °F 36% 30.27 in 6.2 mi North 1.2 mph - N/A   Scattered Clouds
7:00 PM 39.2 °F - 17.6 °F 42% 30.28 in 6.2 mi West 2.3 mph - N/A   Scattered Clouds
8:00 PM 37.4 °F 33.8 °F 21.2 °F 52% 30.30 in 6.2 mi WNW 4.6 mph - N/A   Scattered Clouds
9:00 PM 37.4 °F 34.9 °F 23.0 °F 56% 30.31 in 6.2 mi NW 3.5 mph - N/A   Scattered Clouds
10:00 PM 37.4 °F 34.9 °F 23.0 °F 56% 30.32 in 6.2 mi NW 3.5 mph - N/A   Mostly Cloudy
11:00 PM 35.6 °F - 23.0 °F 60% 30.33 in 6.2 mi NW 2.3 mph - N/A   Mostly Cloudy